Location: Daytona Beach
(29.2106°N, 81.0231°W)
Time: 14:16:46
(UTC-04:00)

RS-15 - Pass Details

Date: 27 September 2021
Orbit: 1884 x 2160 km, 64.8° (Epoch: 23 October)

Event Time Altitude Azimuth Distance (km) Brightness Sun altitude
Rises 02:43:58 0° 327° (NNW) 5,664 10.6 -55.3°
Reaches altitude 10° 02:47:32 10° 322° (NW) 4,671 10.0 -54.8°
Enters shadow 02:48:18 13° 321° (NW) 4,461 9.9 -54.7°
